"Time","Temp","Dewpoint","Humidity","Pressure","Direction","Speed","Gust","Precip","PrecipRate"
"00:04:57","44","42.1","93","30.12","124","0","0","0.00","0.00"
"00:09:56","43.8","41.8","92.7","30.12","124","0","0","0.00","0.00"
"00:14:57","43.7","41.8","93","30.12","124","0","0","0.00","0.00"
"00:19:58","43.8","42.1","93.7","30.12","124","0","0","0.00","0.00"
"00:24:59","44","42.4","94","30.12","124","0","0","0.00","0.00"
"00:29:59","43.8","42","93.5","30.12","124","0","0","0.00","0.00"
"00:34:56","43.4","41.4","92.7","30.12","124","0","0","0.00","0.00"
"00:38:34","43.1","40.9","92","30.12","124","0","0","0.00","0.00"
"00:54:57","42.4","40.5","93","30.12","124","0","0","0.00","0.00"
"00:59:59","42.2","40.3","93","30.12","124","0","0","0.00","0.00"
"01:04:56","42.3","40.6","93.9","30.12","124","0","0","0.00","0.00"
"01:09:57","42.4","40.8","94","30.12","124","0","0","0.00","0.00"
"01:14:59","42.3","40.7","94","30.12","124","0","0","0.00","0.00"
"01:19:56","42.1","40.3","93.6","30.11","124","0","0","0.00","0.00"
"01:24:57","41.8","39.9","93","30.11","124","0","0","0.00","0.00"
"01:29:58","41.6","39.9","93.7","30.11","124","0","0","0.00","0.00"
"01:34:58","41.7","40.1","94","30.11","124","0","0","0.00","0.00"
"01:39:56","41.7","40.2","94.4","30.11","124","0","0","0.00","0.00"
"01:44:57","41.9","40.6","95","30.11","124","0","0","0.00","0.00"
"01:49:57","42.1","40.8","95","30.11","124","0","0","0.00","0.00"
"01:54:58","42.1","40.7","94.7","30.11","124","0","0","0.00","0.00"
"01:59:58","42","40.6","94.8","30.11","124","0","0","0.00","0.00"
"02:04:56","42","40.7","95","30.11","124","0","0","0.00","0.00"
"02:09:56","41.9","40.4","94.3","30.11","124","0","0","0.00","0.00"
"02:14:59","41.7","40.1","94","30.11","124","0","0","0.00","0.00"
"02:19:59","41.8","40.5","95","30.11","124","0","0","0.00","0.00"
"02:24:56","41.9","40.6","95","30.11","124","0","0","0.00","0.00"
"02:29:56","41.9","40.6","95","30.11","124","0","0","0.00","0.00"
"02:34:58","41.8","40.3","94.4","30.11","124","0.1","2","0.00","0.00"
"02:39:56","41.7","40.4","94.9","30.11","124","0.1","2.3","0.00","0.00"
"02:44:57","41.8","40.5","95","30.11","124","0.1","1.2","0.00","0.00"
"02:49:58","41.7","40.5","95.3","30.10","66","2","3.5","0.00","0.00"
"02:54:59","41.9","40.7","95.5","30.10","57","0.9","3.5","0.00","0.00"
"02:59:59","42.1","41","96","30.10","57","1.1","3.5","0.00","0.00"
"03:04:57","42.4","41.3","96","30.10","57","1","3.5","0.00","0.00"
"03:09:57","42.4","41.3","95.8","30.10","57","0","0","0.00","0.00"
"03:14:59","42.1","40.8","95","30.10","57","0","0","0.00","0.00"
"03:19:56","41.6","40","94","30.09","57","0.9","3.5","0.00","0.00"
"03:24:57","41.5","40.2","95","30.09","57","0.3","2.3","0.00","0.00"
"03:29:57","41.7","40.6","95.8","30.09","57","0.2","2.3","0.00","0.00"
"03:34:58","41.9","40.8","96","30.09","57","0","0","0.00","0.00"
"03:39:57","41.8","40.6","95.4","30.09","57","0.2","1.2","0.00","0.00"
"03:44:57","41.9","40.8","96","30.09","57","0","0","0.00","0.00"
"03:49:58","42","40.8","95.6","30.08","57","0.2","2.3","0.00","0.00"
"03:54:58","41.9","40.7","95.7","30.08","57","0","0","0.00","0.00"
"03:59:58","42","40.9","96","30.08","57","0","0","0.00","0.00"
"04:04:56","42.3","41.2","96","30.08","57","0.2","1.2","0.00","0.00"
"04:09:57","42.4","41.3","96","30.08","57","0","0","0.00","0.00"
"04:14:59","42.3","41.1","95.4","30.09","57","0","0","0.00","0.00"
"04:19:56","41.8","40.4","94.7","30.09","57","0","2","0.00","0.00"
"04:24:56","41.5","40.2","94.9","30.09","57","1.5","3.5","0.00","0.00"
"04:29:59","41.7","40.5","95.9","30.09","57","2.3","3.5","0.00","0.00"
"04:34:59","41.8","40.7","96","30.09","57","0.9","2.3","0.00","0.00"
"04:39:58","42.1","41","96","30.09","57","1","2.3","0.00","0.00"
"04:44:58","42.1","41","95.7","30.09","57","0.1","2.3","0.00","0.00"
"04:49:58","41.8","40.5","95","30.09","57","0","0","0.00","0.00"
"04:54:58","41.6","40.3","95","30.09","57","0","0","0.00","0.00"
"04:59:58","41.5","40.2","95.4","30.09","57","0.4","2.3","0.00","0.00"
"05:04:59","41.6","40.5","96","30.09","57","0.6","2.3","0.00","0.00"
"05:09:56","41.7","40.6","96","30.09","57","0","0","0.00","0.00"
"05:14:57","41.6","40.5","96","30.09","57","0.8","2.3","0.00","0.00"
"05:19:57","41.6","40.5","96","30.08","57","1.8","3.5","0.00","0.00"
"05:24:57","41.5","40.3","95.6","30.08","57","1.6","3.5","0.00","0.00"
"05:29:58","41.4","40.3","96","30.08","57","0","0","0.00","0.00"
"05:34:59","41.1","39.8","95.1","30.08","57","0.3","2","0.00","0.00"
"05:39:59","41","39.8","95.5","30.08","57","0.8","2.3","0.00","0.00"
"05:44:58","40.9","39.8","95.5","30.09","57","0","0","0.00","0.00"
"05:49:56","40.8","39.7","96","30.09","57","0.2","1.2","0.00","0.00"
"05:54:58","40.7","39.5","95.4","30.09","57","0","0","0.00","0.00"
"05:59:59","40.5","39.2","95","30.09","57","0","0","0.00","0.00"
"06:04:57","40.4","39.2","95.4","30.09","57","0.9","2.3","0.00","0.00"
"06:09:59","40.6","39.5","96","30.09","57","1","2.3","0.00","0.00"
"06:14:57","40.7","39.6","96","30.09","57","0","0","0.00","0.00"
"06:19:58","40.6","39.5","96","30.09","57","0","0","0.00","0.00"
"06:24:59","40.5","39.4","96","30.09","57","0","0","0.00","0.00"
"06:29:56","40.5","39.4","96","30.09","57","0","0","0.00","0.00"
"06:34:56","40.5","39.4","96","30.09","57","0","0","0.00","0.00"
"06:39:58","40.6","39.6","96.2","30.09","57","0","0","0.00","0.00"
"06:44:56","40.9","40.1","97","30.09","57","0.1","2.3","0.00","0.00"
"06:49:56","41.1","40.3","97","30.09","69","0.2","3","0.00","0.00"
"06:54:57","41.4","40.6","97","30.09","78","0.2","3.5","0.00","0.00"
"06:59:56","42","41.2","97","30.09","92","0","0","0.00","0.00"
"07:04:58","42.9","42.2","97.6","30.09","92","0","0","0.00","0.00"
"07:09:58","43.8","43.3","98","30.09","92","0","1.2","0.00","0.00"
"07:14:58","44.6","44.1","98","30.09","92","0","0","0.00","0.00"
"07:19:56","45.2","44.7","98","30.09","135","0.3","2.3","0.00","0.00"
"07:24:58","45.3","44.8","98","30.09","135","0","1.2","0.00","0.00"
"07:29:56","45.2","44.7","98","30.10","135","0.3","2","0.00","0.00"
"07:34:58","45.7","45.2","98","30.10","136","0.2","2.3","0.00","0.00"
"07:39:55","46.5","46","98","30.10","135","0.3","2.3","0.00","0.00"
"07:44:57","47.3","46.8","98","30.10","157","1.6","5","0.00","0.00"
"07:49:57","48","47.5","98","30.10","172","1.1","3.5","0.00","0.00"
"07:54:59","48.5","48","98","30.10","159","1.5","5","0.00","0.00"
"07:59:56","49.1","48.6","98","30.10","148","1.3","5","0.00","0.00"
"08:04:59","49.8","49.3","98","30.10","158","2.4","4.6","0.00","0.00"
"08:09:59","50.4","49.9","98","30.10","179","1.5","3.5","0.00","0.00"
"08:14:57","51.2","50.1","96.2","30.10","165","1.6","4","0.00","0.00"
"08:19:57","52","50.2","93.7","30.10","161","1.1","3.5","0.00","0.00"
"08:24:57","52.6","50.4","92.3","30.10","155","1.4","4","0.00","0.00"
"08:29:57","53.3","50.6","90.8","30.10","222","1.1","4","0.00","0.00"
"08:34:59","53.8","50.6","88.7","30.10","164","2.4","6","0.00","0.00"
"08:39:58","54.5","50.7","86.9","30.10","169","3","7","0.00","0.00"
"08:44:58","55.2","50.9","85.3","30.10","153","2.6","9.2","0.00","0.00"
"08:49:59","55.8","51","84.1","30.09","194","4","8.1","0.00","0.00"
"08:54:56","56.1","50.9","82.7","30.09","193","3.2","12","0.00","0.00"
"08:59:56","56.9","51.2","81.3","30.09","156","3.2","10.4","0.00","0.00"
"09:04:57","57.6","51.6","80.2","30.09","195","2.9","7","0.00","0.00"
"09:09:57","58.2","51.8","79.5","30.09","189","2.7","7","0.00","0.00"
"09:14:57","58.6","51.7","77.7","30.09","183","3.9","8.1","0.00","0.00"
"09:19:58","59.1","51.9","76.8","30.09","177","3.1","10","0.00","0.00"
"09:24:56","59.6","51.8","75.4","30.09","180","4.5","10","0.00","0.00"
"09:29:57","59.9","52","75.1","30.09","180","4","10","0.00","0.00"
"09:34:57","60.4","52.2","74.4","30.09","190","4.1","11.5","0.00","0.00"
"09:39:56","60.8","52.5","74","30.09","190","3.8","7","0.00","0.00"
"09:44:56","61.2","52.7","73.5","30.09","181","3.3","7","0.00","0.00"
"09:49:41","61.8","52.7","72.1","30.08","190","3.4","7","0.00","0.00"
"09:54:57","62.4","52.9","70.9","30.08","183","5.2","11.5","0.00","0.00"
"09:59:58","63","53.1","70.2","30.08","177","3.3","6","0.00","0.00"
"10:04:58","63.5","53.1","68.9","30.08","196","5.2","11","0.00","0.00"
"10:09:58","63.8","53.2","68.3","30.08","181","3.4","6","0.00","0.00"
"10:14:56","64.4","53.2","67","30.08","188","4.6","10.4","0.00","0.00"
"10:19:57","64.9","53.3","66.1","30.07","186","4.3","10","0.00","0.00"
"10:24:57","65.4","53.4","65.2","30.07","185","3.8","8","0.00","0.00"
"10:29:58","66","53.3","63.6","30.07","207","5.2","11","0.00","0.00"
"10:34:59","66.5","53.7","63.3","30.07","228","6.3","16.1","0.00","0.00"
"10:39:57","66.9","53.4","61.8","30.07","204","5.4","14","0.00","0.00"
"10:44:58","67.3","53","60.1","30.07","197","6.8","14","0.00","0.00"
"10:49:56","67.5","53.5","60.7","30.06","195","6.6","17.3","0.00","0.00"
"10:54:57","67.9","53.8","60.7","30.06","216","5.4","12","0.00","0.00"
"10:59:57","68.3","53.6","59.4","30.06","215","6.6","14","0.00","0.00"
"11:04:58","68.6","54","59.5","30.06","199","5.7","13","0.00","0.00"
"11:09:58","69.1","54.2","59","30.06","214","5.3","9.2","0.00","0.00"
"11:14:57","69.7","54.7","58.9","30.06","204","4.3","10.4","0.00","0.00"
"11:19:58","70.1","54.2","57.2","30.04","191","5","10.4","0.00","0.00"
"11:24:59","70.3","54.1","56.5","30.04","185","6.4","14","0.00","0.00"
"11:29:59","70.2","53.6","55.5","30.04","193","7.8","15","0.00","0.00"
"11:34:59","70.5","54","55.9","30.03","210","6","14","0.00","0.00"
"11:39:59","70.6","53.6","55.1","30.03","202","6.6","13","0.00","0.00"
"11:44:59","70.7","53.7","54.9","30.03","189","6.8","14","0.00","0.00"
"11:49:57","70.7","53.5","54.7","30.02","181","5.6","11.5","0.00","0.00"
"11:54:57","70.6","53.3","54.3","30.02","189","7.5","19.6","0.00","0.00"
"11:59:57","70.6","53.9","55.5","30.02","192","6.9","14","0.00","0.00"
"12:04:59","70.8","53.7","54.7","30.01","192","7.2","20","0.00","0.00"
"12:09:59","70.9","53.7","54.6","30.01","204","7.1","13","0.00","0.00"
"12:14:56","71.1","53.8","54.4","30.01","192","5.4","14","0.00","0.00"
"12:19:56","71.5","54","54","30.01","189","5.5","13","0.00","0.00"
"12:24:59","71.7","53.6","52.8","30.01","189","5.8","16.1","0.00","0.00"
"12:29:59","71.9","53.5","52.4","30.01","189","6.3","14","0.00","0.00"
"12:34:58","72.2","54.1","53","30.00","193","5.9","12","0.00","0.00"
"12:39:56","72.5","54","52.3","30.00","184","4.9","14","0.00","0.00"
"12:44:56","72.9","53.5","50.7","30.00","188","6.3","15","0.00","0.00"
"12:49:59","73","53.4","50.3","29.98","196","7.7","12","0.00","0.00"
"12:54:57","73.1","53.7","50.7","29.98","200","5.6","14","0.00","0.00"
"12:59:57","73.3","53.4","49.7","29.98","201","6.9","15","0.00","0.00"
"13:04:58","73.4","53.8","50.4","29.98","192","5.1","15","0.00","0.00"
"13:09:58","73.6","53","48.6","29.98","192","5.6","15","0.00","0.00"
"13:14:57","73.6","53.5","49.4","29.98","200","6.3","15","0.00","0.00"
"13:19:58","73.7","53.2","48.8","29.97","210","6.1","13","0.00","0.00"
"13:24:57","74","54","49.7","29.97","199","4.5","9.2","0.00","0.00"
"13:29:59","74.5","53.5","48","29.97","202","6.6","17","0.00","0.00"
"13:34:58","74.5","53","47.1","29.97","211","6.6","17.3","0.00","0.00"
"13:39:57","74.5","53.1","47.2","29.97","185","7.4","16.1","0.00","0.00"
"13:44:59","74.4","52.6","46.6","29.97","205","7.2","14","0.00","0.00"
"13:49:56","74.4","53","47.3","29.96","216","6.6","14","0.00","0.00"
"13:54:58","74.2","52.7","47.1","29.96","223","8.4","17","0.00","0.00"
"13:59:59","74.1","52.9","47.6","29.96","214","6.5","14","0.00","0.00"
"14:04:57","74.2","52.7","47.1","29.96","205","7.1","16.1","0.00","0.00"
"14:09:53","74.3","52.8","47","29.96","204","7.8","14","0.00","0.00"
"14:14:59","74.3","52.8","47.2","29.96","189","7.3","13.8","0.00","0.00"
"14:19:59","74.2","52.5","46.7","29.95","181","6.2","15","0.00","0.00"
"14:24:56","74.1","52.4","46.7","29.95","190","7","14","0.00","0.00"
"14:29:57","73.9","52.4","47","29.95","183","6.6","16","0.00","0.00"
"14:34:59","73.9","52.3","46.8","29.95","188","7.3","14","0.00","0.00"
"14:39:57","73.3","52.1","47.5","29.95","174","6.2","14","0.00","0.00"
"14:44:57","72.8","51.9","47.8","29.95","195","6.6","15","0.00","0.00"
"14:49:55","72.4","51.8","48.4","29.95","197","6.6","13","0.00","0.00"
"14:54:57","72.3","51.8","48.4","29.95","188","5.5","14","0.00","0.00"
"14:59:58","72.6","52.6","49.6","29.95","189","4.1","10.4","0.00","0.00"
"15:04:56","72.6","52.6","49.5","29.95","194","4.4","10","0.00","0.00"
"15:09:56","72.6","52.6","49.5","29.95","204","5.3","12","0.00","0.00"
"15:14:59","72.7","52.5","49.3","29.95","197","5.6","12","0.00","0.00"
"15:19:59","72.5","52","48.7","29.95","195","5.4","12","0.00","0.00"
"15:24:56","72.2","52.4","49.9","29.95","206","4.3","10.4","0.00","0.00"
"15:29:31","72.1","52.3","49.8","29.95","209","5.8","12","0.00","0.00"
"15:34:57","72","52.2","49.7","29.95","193","5.7","15","0.00","0.00"
"15:39:57","71.9","52.3","50.1","29.95","209","3.5","10.4","0.00","0.00"
"15:44:57","71.7","52.1","50.1","29.95","195","3.6","7","0.00","0.00"
"15:49:58","71.4","52.1","50.5","29.95","201","3.5","9.2","0.00","0.00"
"15:54:57","71.1","51.6","50.2","29.95","201","4.6","10.4","0.00","0.00"
"15:59:59","70.8","51.8","51","29.95","218","4.5","11.5","0.00","0.00"
"16:04:56","70.4","51.7","51.5","29.95","211","3.8","9.2","0.00","0.00"
"16:09:56","70.4","51.6","51.4","29.95","210","4.1","7","0.00","0.00"
"16:14:59","70.3","51.6","51.6","29.95","211","3.7","8","0.00","0.00"
"16:19:59","70.4","51.7","51.6","29.95","206","3.3","8.1","0.00","0.00"
"16:24:56","70.4","51.7","51.7","29.95","188","2.8","6","0.00","0.00"
"16:29:58","70.3","51.7","51.8","29.95","199","2.5","5","0.00","0.00"
"16:34:56","70.2","51.6","51.7","29.94","207","1.8","4","0.00","0.00"
"16:39:56","70.1","51.6","51.9","29.94","191","2.4","6","0.00","0.00"
"16:44:58","70","51.6","51.9","29.94","191","1","3.5","0.00","0.00"
"16:49:57","70","51.6","52","29.94","191","1.4","4","0.00","0.00"
"16:54:59","69.8","51.9","53","29.94","191","1.2","3.5","0.00","0.00"
"16:59:56","69.6","52.1","53.9","29.95","191","1.8","3.5","0.00","0.00"
"17:04:59","69.3","52","54.2","29.95","191","1.1","3.5","0.00","0.00"
"17:09:59","69.3","51.8","53.9","29.95","263","1.8","3.5","0.00","0.00"
"17:14:56","69.1","52.5","55.6","29.96","282","1.4","4","0.00","0.00"
"17:19:59","68.8","52.4","56","29.96","314","1.4","4","0.00","0.00"
"17:24:59","68.5","52.9","57.4","29.96","321","0.3","2.3","0.00","0.00"
"17:29:59","68.3","52.9","58","29.97","301","1.4","3.5","0.00","0.00"
"17:34:59","68.1","53","58.5","29.97","312","1.4","4","0.00","0.00"
"17:39:58","67.9","53.2","59.3","29.97","328","0.5","2.3","0.00","0.00"
"17:44:58","67.6","53.5","60.6","29.97","328","0.6","2.3","0.00","0.00"
"17:49:58","67.2","53.7","61.9","29.97","328","0.9","2.3","0.00","0.00"
"17:54:57","66.9","53.6","62.3","29.97","288","3.1","13","0.00","0.00"
"17:59:56","66.6","54.6","65.3","30.01","312","10.3","23","0.00","0.00"
"18:04:58","62.9","54","72.9","30.01","328","9.8","23","0.00","0.00"
"18:09:59","59.9","52.8","77.5","30.01","315","7.3","18.4","0.01","0.01"
"18:14:56","58.2","51.9","79.7","30.03","323","6.9","15","0.01","0.01"
"18:19:58","57.4","51.5","80.8","30.03","304","5.2","16","0.01","0.01"
"18:24:57","56.9","51.1","81","30.03","332","5.1","10.4","0.01","0.01"
"18:29:58","56.5","50.5","80.4","30.05","320","5.6","13","0.02","0.02"
"18:34:58","56.1","49.8","79.5","30.05","312","5.5","12","0.02","0.02"
"18:39:57","55.6","49.5","80","30.05","311","4.5","11.5","0.02","0.02"
"18:44:57","55.3","49","79.3","30.06","317","5.3","15","0.02","0.02"
"18:49:58","55.2","49","79.5","30.06","313","3.6","9.2","0.02","0.02"
"18:54:56","54.9","49.1","80.8","30.06","322","5.3","11.5","0.02","0.02"
"18:59:56","54.6","49.1","81.6","30.07","328","3.6","13","0.02","0.02"
"19:04:59","54.3","48.7","81.2","30.07","329","4.3","15","0.02","0.02"
"19:09:59","54.2","48.5","80.9","30.07","322","4.4","15","0.02","0.02"
"19:14:57","54.1","48","79.6","30.07","308","5.4","12","0.02","0.01"
"19:19:58","54","47.6","79","30.07","334","6.1","19","0.02","0.01"
"19:24:56","53.9","46.9","77","30.07","330","9.8","20","0.02","0.01"
"19:29:57","53.9","46.8","76.7","30.07","334","8.8","19.6","0.02","0.01"
"19:34:56","53.8","46.7","76.8","30.06","327","5.4","14","0.02","0.00"
"19:39:56","53.6","46.3","76.1","30.06","328","8.2","16","0.02","0.00"
"19:44:57","53.5","46.1","75.8","30.08","324","6.1","16.1","0.02","0.00"
"19:49:56","53.4","45.6","74.8","30.08","320","5.8","15","0.02","0.00"
"19:54:58","53.3","45.3","74.3","30.08","316","4.7","13","0.02","0.00"
"19:59:58","53.1","45.2","74.3","30.08","328","4.8","15","0.02","0.00"
"20:04:57","52.9","44.2","72.4","30.08","317","6.3","18","0.02","0.00"
"20:09:57","52.5","43.7","71.7","30.08","328","5.2","12","0.02","0.00"
"20:14:59","52.3","43.5","72","30.09","295","4.5","13","0.02","0.00"
"20:19:56","51.9","42.7","70.8","30.09","311","7.1","14","0.03","0.01"
"20:24:56","51.6","41.8","69.2","30.09","329","6.8","22","0.03","0.01"
"20:29:57","51.2","41.4","69.2","30.09","327","4.9","13","0.03","0.01"
"20:34:56","50.8","40.2","66.9","30.09","329","6.7","15","0.03","0.01"
"20:39:58","50.6","39.9","66.6","30.09","344","4.1","16","0.03","0.01"
"20:44:56","50.3","40","67.6","30.09","355","3.3","14","0.03","0.01"
"20:49:56","50","39.4","66.9","30.09","315","6.2","13.8","0.03","0.01"
"20:54:57","49.9","39.2","66.5","30.09","334","5.2","11.5","0.03","0.01"
"20:59:56","49.8","37.4","62.1","30.11","332","9.2","24.2","0.03","0.01"
"21:04:59","50","35.1","56.4","30.11","306","9.9","24.2","0.03","0.01"
"21:09:59","49.9","32.8","51.7","30.11","315","9.5","25.3","0.03","0.01"
"21:14:57","49.8","30.9","48","30.12","317","7.7","18.4","0.03","0.01"
"21:19:58","49.6","30.7","47.9","30.12","306","3.9","15","0.03","0.01"
"21:24:56","49.3","30.4","48","30.12","310","7.8","20","0.03","0.00"
"21:29:59","49","30.7","48.9","30.12","315","7.6","21","0.03","0.00"
"21:34:56","48.8","30.6","49.2","30.12","324","8.9","24.2","0.03","0.00"
"21:39:57","48.6","30.5","49.5","30.12","328","8.2","19.6","0.03","0.00"
"21:44:58","48.4","30","48.8","30.14","340","9.9","21","0.03","0.00"
"21:49:59","48.3","30.1","49.3","30.14","333","8.8","20.7","0.03","0.00"
"21:54:58","48.1","30.3","50.1","30.14","321","8.3","19.6","0.03","0.00"
"21:59:59","47.9","30.8","51.6","30.17","311","6.6","18","0.03","0.00"
"22:04:58","47.7","30.9","52","30.17","338","4.7","16","0.03","0.00"
"22:09:59","47.6","30.8","52.2","30.17","328","4.7","11.5","0.03","0.00"
"22:14:58","47.3","31.3","53.6","30.17","337","7.5","22","0.03","0.00"
"22:19:59","47.1","31.4","54.3","30.17","339","8.3","17.3","0.03","0.00"
"22:24:57","47","32","55.8","30.17","332","5.5","17.3","0.03","0.00"
"22:29:59","46.8","32.4","57","30.17","322","4.5","9.2","0.03","0.00"
"22:34:56","46.5","32.6","58.4","30.17","345","5.7","15","0.03","0.00"
"22:39:56","46.3","32.7","59","30.17","331","5.4","20","0.03","0.00"
"22:44:59","46.1","32.8","59.5","30.17","323","4.5","13","0.03","0.00"
"22:49:56","45.9","32.6","59.3","30.16","15","5","12.7","0.03","0.00"
"22:54:56","46","32.2","58.3","30.16","315","5","13","0.03","0.00"
"22:59:56","45.9","32.1","58.4","30.18","260","3.3","10.4","0.03","0.00"
"23:04:56","45.7","32.1","58.8","30.18","312","2","6","0.03","0.00"
"23:09:56","45.5","31.8","58.5","30.18","321","3.6","11.5","0.03","0.00"
"23:14:58","45.3","31.4","57.8","30.18","316","4","13","0.03","0.00"
"23:19:56","45.3","31.1","57.3","30.18","318","6","15","0.03","0.00"
"23:24:57","45.4","31.1","57.2","30.18","313","5.6","15","0.03","0.00"
"23:29:59","45.4","31","57","30.18","312","4.3","9.2","0.03","0.00"
"23:34:56","45.3","31","57.1","30.18","311","4.4","10.4","0.03","0.00"
"23:39:58","45.1","31.2","58","30.18","314","3.7","6","0.03","0.00"
"23:44:59","44.8","31.1","58.4","30.18","324","3.5","7","0.03","0.00"
"23:49:56","44.7","30.8","58","30.18","310","3.1","8.1","0.03","0.00"
"23:54:58","44.7","30.9","58.2","30.18","331","5.4","12","0.03","0.00"
"23:59:57","44.8","31.2","58.7","30.19","335","5.3","10.4","0.03","0.00"
